[[{"header":{"parameterUnit":"m.s-1","parameterCategory":1,"la1":30.2991,"la2":30.254,"lo1":-89.0895,"lo2":-89.0444,"dy":0.0017,"dx":0.0017,"nx":28,"ny":28,"refTime":"2024-03-17T09:00:00:Z","depth":0,"parameterNumber":2,"parameterNumberName":"U-component_of_WINDS"},"data":[0,0,0,0,0,0,0,0,0,0,0,0,0,0,0,0,0,0,0,0,0,0,0,0,0,0,0,0,0,0,0,0,0,0,0,0,0,0,0,0,0,0,0,0,0,0,0,0,0,0,0,0,0,0,0,0,0,0,-1.6319,-1.6319,0,-1.6311,-1.6311,-1.6311,-1.6286,-1.6285,-1.6285,-1.6284,-1.6277,-1.6277,-1.6278,0,0,0,0,0,0,0,0,0,0,0,0,0,-1.6312,-1.6312,-1.6319,-1.6319,-1.6319,-1.6311,-1.6311,-1.6311,-1.6286,-1.6285,-1.6285,-1.6284,-1.6277,-1.6277,-1.6278,0,0,0,0,0,0,0,0,0,0,0,0,0,-1.6311,-1.6312,-1.6319,-1.6305,-1.6304,-1.6312,-1.6311,-1.6311,-1.6286,-1.6285,-1.6284,-1.6284,-1.6277,-1.6277,-1.6278,-1.6298,0,0,-1.6279,-1.628,0,0,0,0,0,0,0,0,-1.6311,-1.6311,-1.6307,-1.6306,-1.6305,-1.6299,-1.6306,-1.6307,-1.6286,-1.6293,-1.6284,-1.6283,-1.6285,-1.6285,-1.6285,-1.6298,-1.6298,-1.6279,-1.628,-1.628,-1.628,0,0,0,0,0,0,0,-1.6311,-1.6311,-1.6316,-1.6307,-1.6306,-1.63,-1.6299,-1.6306,-1.6294,-1.6292,-1.629,-1.629,-1.6284,-1.6285,-1.6285,-1.6298,-1.6279,-1.628,-1.628,-1.628,-1.6327,-1.6328,0,0,0,0,0,0,-1.6313,-1.6312,-1.6316,-1.6316,-1.6306,-1.63,-1.6299,-1.6302,-1.6294,-1.6292,-1.6291,-1.6289,-1.6284,-1.6284,-1.6285,-1.6308,-1.628,-1.6281,-1.6281,-1.6326,-1.6327,-1.6328,0,0,0,0,0,0,-1.6313,-1.6314,-1.6317,-1.6313,-1.6313,-1.6302,-1.6304,-1.6302,-1.6303,-1.6292,-1.629,-1.6294,-1.6284,-1.6284,-1.6295,-1.6308,-1.6281,-1.6281,-1.6325,-1.6326,-1.6328,-1.6356,0,0,0,0,0,0,-1.6313,-1.6314,-1.6321,-1.6314,-1.6313,-1.6327,-1.6305,-1.6302,-1.6303,-1.6301,-1.6295,-1.6293,-1.6283,-1.6294,-1.6296,-1.6308,-1.6282,-1.6324,-1.6326,-1.6327,-1.6354,-1.6358,-1.6362,0,0,0,0,0,-1.6313,-1.633,-1.6322,-1.6323,-1.6323,-1.6328,-1.6328,-1.6316,-1.6305,-1.6312,-1.6306,-1.6293,-1.6306,-1.6296,-1.6297,-1.631,-1.6323,-1.6325,-1.6327,-1.6352,-1.6357,-1.6362,0,0,0,0,0,0,-1.634,-1.6328,-1.632,-1.6335,-1.6332,-1.6324,-1.6333,-1.6322,-1.6323,-1.6321,-1.6306,-1.6305,-1.6319,-1.6315,-1.6304,-1.6329,-1.6312,-1.6315,-1.6331,-1.6336,-1.634,-1.6341,-1.6282,0,0,0,0,0,-1.6347,-1.6352,-1.6342,-1.6357,-1.6356,-1.6345,-1.6347,-1.6338,-1.6335,-1.6334,-1.6328,-1.6326,-1.633,-1.6332,-1.6335,-1.6353,-1.6351,-1.6362,-1.6366,-1.6369,-1.6372,-1.6381,-1.6386,-1.6335,-1.6335,-1.6335,0,0,-1.6363,-1.6358,-1.6362,-1.6362,-1.6359,-1.6365,-1.6344,-1.6351,-1.6355,-1.6335,-1.6345,-1.6341,-1.6338,-1.6352,-1.6359,-1.635,-1.6386,-1.6372,-1.6375,-1.6375,-1.6384,-1.6389,-1.6393,-1.6336,-1.6336,-1.6336,0,0,-1.6395,-1.6392,-1.6403,-1.6401,-1.6397,-1.6389,-1.6392,-1.6385,-1.6381,-1.6391,-1.6376,-1.6381,-1.6387,-1.6386,-1.6386,-1.6417,-1.6406,-1.6418,-1.6439,-1.6449,-1.6453,-1.6456,-1.6468,-1.6472,-1.6421,-1.6421,-1.6421,0,-1.6416,-1.6424,-1.641,-1.6419,-1.6419,-1.64,-1.6412,-1.641,-1.6408,-1.6409,-1.6399,-1.6407,-1.6403,-1.6417,-1.6425,-1.6426,-1.6429,-1.6419,-1.6453,-1.6457,-1.646,-1.6471,-1.6475,-1.6422,-1.6422,-1.6422,-1.6422,0,-1.6449,-1.6455,-1.6465,-1.6463,-1.6464,-1.6474,-1.6462,-1.6465,-1.6456,-1.645,-1.646,-1.6455,-1.6457,-1.646,-1.6451,-1.6473,-1.6467,-1.6456,-1.6439,-1.6466,-1.6476,-1.648,-1.6425,-1.6424,-1.6424,-1.6423,0,0,-1.6499,-1.6489,-1.6493,-1.6491,-1.6485,-1.649,-1.6499,-1.65,-1.6503,-1.6502,-1.6509,-1.6515,-1.6504,-1.6504,-1.6495,-1.6503,-1.6529,-1.649,-1.649,-1.6498,-1.6553,-1.6562,-1.6567,-1.6521,-1.6522,-1.6522,-1.6553,0,-1.653,-1.6544,-1.6533,-1.655,-1.6555,-1.6537,-1.6545,-1.6543,-1.6537,-1.6541,-1.6534,-1.6539,-1.6523,-1.6523,-1.6531,-1.6524,-1.654,-1.6522,-1.6528,-1.6529,-1.653,-1.6573,-1.6582,-1.6612,-1.6557,-1.6558,-1.6558,0,-1.6568,-1.6568,-1.6586,-1.6579,-1.658,-1.6588,-1.6588,-1.6592,-1.6588,-1.6584,-1.6584,-1.6572,-1.6581,-1.6564,-1.6576,-1.6564,-1.6566,-1.6563,-1.6564,-1.6564,-1.6546,-1.6575,-1.6621,-1.6626,-1.6564,-1.6564,-1.6563,0,-1.6603,-1.6607,-1.6618,-1.6618,-1.661,-1.6615,-1.6612,-1.6608,-1.661,-1.661,-1.6611,-1.6612,-1.6613,-1.6614,-1.6604,-1.6592,-1.6617,-1.6599,-1.6614,-1.6614,-1.662,-1.662,-1.6668,-1.6621,-1.6621,-1.6621,-1.6621,0,-1.6639,-1.665,-1.6634,-1.6641,-1.6653,-1.664,-1.6652,-1.6648,-1.6644,-1.665,-1.6634,-1.664,-1.6626,-1.663,-1.6622,-1.6633,-1.6634,-1.663,-1.6628,-1.6632,-1.6632,-1.6633,-1.6631,-1.6622,-1.6622,-1.6621,-1.6621,0,-1.668,-1.667,-1.6681,-1.6672,-1.667,-1.668,-1.6672,-1.6679,-1.6671,-1.6679,-1.668,-1.6669,-1.6674,-1.6663,-1.6666,-1.666,-1.6677,-1.6671,-1.6678,-1.6676,-1.6692,-1.6691,-1.6742,-1.6749,-1.6697,-1.6697,-1.6698,0,-1.6704,-1.6713,-1.6705,-1.6707,-1.6705,-1.671,-1.6711,-1.6698,-1.67,-1.6697,-1.6704,-1.6707,-1.6708,-1.6716,-1.6709,-1.6711,-1.6705,-1.6723,-1.6706,-1.6709,-1.6706,-1.6706,-1.6707,-1.6727,-1.6728,-1.6728,-1.6729,0,-1.6748,-1.6742,-1.6745,-1.6746,-1.6748,-1.6748,-1.6747,-1.675,-1.6735,-1.6739,-1.6743,-1.6744,-1.6747,-1.6751,-1.6751,-1.6748,-1.6736,-1.6734,-1.6738,-1.6742,-1.6746,-1.6745,-1.6688,-1.6733,-1.6733,-1.6733,-1.6732,-1.6732,-1.6782,-1.6788,-1.6784,-1.6787,-1.6785,-1.6784,-1.679,-1.6783,-1.6786,-1.6788,-1.6779,-1.6785,-1.6782,-1.6781,-1.678,-1.6784,-1.6776,-1.6781,-1.6783,-1.6784,-1.6787,-1.6745,-1.6784,-1.6784,-1.6784,-1.6784,-1.6784,0,-1.6825,-1.6821,-1.6824,-1.6823,-1.6826,-1.6814,-1.6812,-1.6816,-1.6821,-1.6818,-1.682,-1.6825,-1.6829,-1.6821,-1.6823,-1.6829,-1.6823,-1.683,-1.6829,-1.6829,-1.6794,-1.6791,-1.6834,-1.6834,-1.6834,-1.6834,-1.6834,-1.6834,-1.6848,-1.6859,-1.6853,-1.6862,-1.6858,-1.6864,-1.6864,-1.6863,-1.6861,-1.6868,-1.687,-1.6865,-1.6861,-1.6862,-1.6865,-1.6863,-1.6864,-1.6873,-1.6869,-1.6836,-1.6831,-1.6827,-1.6824,-1.6873,-1.6873,-1.6903,-1.6904,-1.6904]},{"header":{"parameterUnit":"m.s-1","parameterCategory":1,"la1":30.2991,"la2":30.254,"lo1":-89.0895,"lo2":-89.0444,"dy":0.0017,"dx":0.0017,"nx":28,"ny":28,"refTime":"2024-03-17T09:00:00:Z","depth":0,"parameterNumber":3,"parameterNumberName":"V-component_of_WINDS"},"data":[0,0,0,0,0,0,0,0,0,0,0,0,0,0,0,0,0,0,0,0,0,0,0,0,0,0,0,0,0,0,0,0,0,0,0,0,0,0,0,0,0,0,0,0,0,0,0,0,0,0,0,0,0,0,0,0,0,0,-1.1269,-1.127,0,-1.1301,-1.1302,-1.1302,-1.1305,-1.1304,-1.1304,-1.1304,-1.1334,-1.1335,-1.1336,0,0,0,0,0,0,0,0,0,0,0,0,0,-1.1209,-1.121,-1.1269,-1.127,-1.127,-1.1301,-1.1302,-1.1302,-1.1305,-1.1304,-1.1304,-1.1303,-1.1333,-1.1335,-1.1336,0,0,0,0,0,0,0,0,0,0,0,0,0,-1.1237,-1.121,-1.1269,-1.1275,-1.1276,-1.1301,-1.1302,-1.1302,-1.1305,-1.1304,-1.1304,-1.1303,-1.1333,-1.1335,-1.1336,-1.1357,0,0,-1.1341,-1.1342,0,0,0,0,0,0,0,0,-1.1236,-1.124,-1.1274,-1.1275,-1.1276,-1.1298,-1.1291,-1.132,-1.1305,-1.1294,-1.1304,-1.1303,-1.1322,-1.1325,-1.1332,-1.1358,-1.1359,-1.1342,-1.1343,-1.1343,-1.1344,0,0,0,0,0,0,0,-1.1234,-1.1238,-1.1282,-1.1275,-1.1276,-1.1276,-1.1279,-1.1297,-1.131,-1.1295,-1.1295,-1.1299,-1.1323,-1.133,-1.1333,-1.136,-1.1342,-1.1343,-1.1344,-1.1345,-1.1404,-1.1405,0,0,0,0,0,0,-1.1231,-1.1237,-1.1281,-1.1283,-1.1254,-1.1277,-1.1281,-1.1292,-1.131,-1.1313,-1.1299,-1.1299,-1.1328,-1.1331,-1.1334,-1.1359,-1.1343,-1.1345,-1.1346,-1.1404,-1.1404,-1.1405,0,0,0,0,0,0,-1.123,-1.1235,-1.128,-1.126,-1.1266,-1.1279,-1.1291,-1.1293,-1.13,-1.1314,-1.1316,-1.1305,-1.1327,-1.1331,-1.1351,-1.136,-1.1346,-1.1347,-1.1403,-1.1404,-1.1405,-1.141,0,0,0,0,0,0,-1.1228,-1.1234,-1.1243,-1.126,-1.1267,-1.1297,-1.1291,-1.1294,-1.1303,-1.1303,-1.1319,-1.1321,-1.1327,-1.1349,-1.1353,-1.1362,-1.1349,-1.1402,-1.1403,-1.1404,-1.1409,-1.1411,-1.1412,0,0,0,0,0,-1.1226,-1.1242,-1.1243,-1.1249,-1.1278,-1.1298,-1.1302,-1.1308,-1.1304,-1.1312,-1.1321,-1.1321,-1.1358,-1.1351,-1.1355,-1.1365,-1.1402,-1.1403,-1.1404,-1.1408,-1.141,-1.1412,0,0,0,0,0,0,-1.1225,-1.1245,-1.1246,-1.1269,-1.1282,-1.1298,-1.1309,-1.1311,-1.1324,-1.1324,-1.1331,-1.1334,-1.1354,-1.1361,-1.1353,-1.1386,-1.1379,-1.1382,-1.1381,-1.1383,-1.1384,-1.1382,-1.135,0,0,0,0,0,-1.1228,-1.1244,-1.1259,-1.1278,-1.1285,-1.1296,-1.1305,-1.1309,-1.1322,-1.1328,-1.1338,-1.135,-1.1365,-1.1374,-1.1388,-1.141,-1.1413,-1.1419,-1.142,-1.1422,-1.1424,-1.1436,-1.1438,-1.1409,-1.1409,-1.1409,0,0,-1.1234,-1.1246,-1.1255,-1.1278,-1.1289,-1.1304,-1.13,-1.1317,-1.1328,-1.133,-1.135,-1.1357,-1.1371,-1.1392,-1.1402,-1.1399,-1.1432,-1.1423,-1.1424,-1.1426,-1.1437,-1.144,-1.1442,-1.141,-1.141,-1.141,0,0,-1.1252,-1.1263,-1.128,-1.129,-1.1307,-1.1314,-1.1318,-1.1334,-1.134,-1.136,-1.1361,-1.1374,-1.1399,-1.1409,-1.1418,-1.1439,-1.144,-1.1443,-1.1452,-1.1464,-1.1466,-1.1468,-1.1476,-1.1479,-1.1445,-1.1445,-1.1445,0,-1.1256,-1.1281,-1.1288,-1.1305,-1.1315,-1.1318,-1.1334,-1.1344,-1.1364,-1.137,-1.1367,-1.1398,-1.1408,-1.1431,-1.1436,-1.1443,-1.1447,-1.1442,-1.1465,-1.1468,-1.147,-1.1477,-1.148,-1.1446,-1.1446,-1.1446,-1.1446,0,-1.1285,-1.1302,-1.1314,-1.1333,-1.1344,-1.1361,-1.137,-1.1381,-1.1384,-1.1391,-1.1411,-1.1423,-1.1439,-1.1445,-1.1448,-1.1469,-1.1466,-1.1464,-1.1458,-1.1473,-1.148,-1.1483,-1.1446,-1.1446,-1.1446,-1.1446,0,0,-1.1305,-1.1329,-1.1333,-1.1342,-1.136,-1.1372,-1.1388,-1.1405,-1.1414,-1.1427,-1.1441,-1.1462,-1.146,-1.1469,-1.1473,-1.1483,-1.15,-1.148,-1.148,-1.1483,-1.1524,-1.1526,-1.1529,-1.15,-1.1501,-1.1501,-1.1522,0,-1.1325,-1.1356,-1.1363,-1.1388,-1.1404,-1.1407,-1.1421,-1.1433,-1.144,-1.1453,-1.1461,-1.1476,-1.1472,-1.1477,-1.1488,-1.1496,-1.1508,-1.1494,-1.1513,-1.1513,-1.151,-1.1533,-1.1535,-1.1554,-1.1525,-1.1526,-1.1526,0,-1.1353,-1.1368,-1.1396,-1.1412,-1.1418,-1.1431,-1.1447,-1.146,-1.1473,-1.1478,-1.1488,-1.1491,-1.1508,-1.15,-1.1523,-1.1513,-1.1521,-1.1526,-1.1527,-1.1529,-1.1521,-1.1536,-1.1561,-1.1564,-1.1531,-1.153,-1.153,0,-1.1365,-1.1391,-1.1412,-1.1419,-1.1438,-1.1447,-1.1455,-1.1468,-1.1478,-1.1492,-1.1498,-1.1513,-1.1521,-1.1532,-1.1539,-1.1533,-1.1561,-1.1554,-1.1565,-1.1565,-1.1571,-1.1571,-1.1598,-1.1575,-1.1575,-1.1575,-1.1575,0,-1.1387,-1.1404,-1.1417,-1.143,-1.1448,-1.1456,-1.1474,-1.1482,-1.1493,-1.1507,-1.1509,-1.1522,-1.153,-1.1543,-1.1548,-1.1566,-1.1569,-1.1573,-1.1574,-1.1573,-1.1573,-1.1579,-1.1578,-1.1576,-1.1576,-1.1576,-1.1575,0,-1.1404,-1.1413,-1.1435,-1.1452,-1.1456,-1.1469,-1.1483,-1.1494,-1.1502,-1.1518,-1.1523,-1.1534,-1.1549,-1.1557,-1.1576,-1.1579,-1.16,-1.16,-1.1596,-1.1596,-1.1607,-1.1606,-1.1639,-1.1644,-1.1618,-1.1618,-1.1618,0,-1.1418,-1.1431,-1.1449,-1.1459,-1.1467,-1.1482,-1.1493,-1.15,-1.151,-1.1527,-1.1536,-1.1552,-1.1566,-1.159,-1.1599,-1.1614,-1.1615,-1.1625,-1.1617,-1.1615,-1.1615,-1.1615,-1.1616,-1.1627,-1.1627,-1.1628,-1.1628,0,-1.1442,-1.1446,-1.1461,-1.1477,-1.1489,-1.1503,-1.1515,-1.1523,-1.1532,-1.1544,-1.156,-1.157,-1.159,-1.1606,-1.1621,-1.1629,-1.163,-1.163,-1.1634,-1.1633,-1.163,-1.1632,-1.16,-1.163,-1.1629,-1.1629,-1.1629,-1.1629,-1.1457,-1.1469,-1.1484,-1.15,-1.1511,-1.1523,-1.1535,-1.1544,-1.1558,-1.1576,-1.1579,-1.1596,-1.1609,-1.163,-1.1638,-1.1651,-1.1649,-1.1653,-1.1655,-1.1656,-1.1657,-1.1628,-1.1654,-1.1654,-1.1654,-1.1654,-1.1654,0,-1.1482,-1.1491,-1.1506,-1.1525,-1.1538,-1.1538,-1.1552,-1.1563,-1.1578,-1.1591,-1.1604,-1.1623,-1.1638,-1.1648,-1.1663,-1.1672,-1.1673,-1.1676,-1.1675,-1.1677,-1.1658,-1.1654,-1.1675,-1.1675,-1.1675,-1.1675,-1.1675,-1.1675,-1.1496,-1.1516,-1.1522,-1.1547,-1.1556,-1.1574,-1.1582,-1.1593,-1.1603,-1.1624,-1.1637,-1.1644,-1.1655,-1.1672,-1.1685,-1.1688,-1.1693,-1.1697,-1.1699,-1.1681,-1.1679,-1.1676,-1.1673,-1.1698,-1.1698,-1.1717,-1.1718,-1.1718]}]]